Skip Page Navigation
NASA JPL Caltech
NASA Logo - Jet Propulsion Laboratory + View the NASA Portal
+ Center for Near-Earth Object Studies
JPL Home Earth Solar System Stars & Galaxies Technology
JPL Solar System Dynamics
BODIES ORBITS EPHEMERIDES TOOLS PHYSICAL DATA DISCOVERY FAQ SITE MAP
JPL Small-Body Database Browser
Search: [ help ]  
332446 (2008 AF4)
Classification: Apollo [NEO, PHA]          SPK-ID: 2332446
Ephemeris | Orbit Diagram | Orbital Elements | Mission Design | Physical Parameters | Discovery Circumstances | Close-Approach Data ]

[ show orbit diagram ]
Orbital Elements at Epoch 2459200.5 (2020-Dec-17.0) TDB
Reference: JPL 129 (heliocentric ecliptic J2000)
 Element Value Uncertainty (1-sigma)   Units 
e .4106494160836004 2.9747e-08  
a 1.382729051702304 7.0989e-10 au
q .8149121740189226 4.1199e-08 au
i 8.921594986242253 4.3063e-06 deg
node 109.3483540623553 7.5972e-06 deg
peri 293.4455641650343 9.6661e-06 deg
M 15.58129539083217 2.9516e-06 deg
tp 2459174.795739224012
(2020-Nov-21.29573922)
4.8739e-06 TDB
period 593.8873275453387
1.63
4.5735e-07
1.252e-09
d
yr
n .6061755880327599 4.6681e-10 deg/d
Q 1.950545929385686 1.0014e-09 au
  Orbit Determination Parameters
   # obs. used (total)      1101  
   data-arc span      6880 days (18.84 yr)  
   first obs. used      2002-06-01  
   last obs. used      2021-04-02  
   planetary ephem.      DE441  
   SB-pert. ephem.      SB441-N16  
   condition code      0  
   norm. resid. RMS      .30671  
   source      ORB  
   producer      Otto Matic  
   solution date      2021-Apr-18 06:27:01  

Additional Information
 Earth MOID = .00202313 au 
 Jupiter MOID = 3.48195 au 
 T_jup = 4.692 
[ show covariance matrix ]

Ephemeris | Orbit Diagram | Orbital Elements | Mission Design | Physical Parameters | Discovery Circumstances | Close-Approach Data ]

Physical Parameter Table
Parameter Symbol Value Units Sigma Reference Notes
absolute magnitude H 19.70   n/a MPCxxxxx  

332446 (2008 AF4)          Discovered 2008-Jan-10 by LINEAR at Socorro
Reference: 20120703/Numbers.arcLast Updated: 2012-07-09

[ show close-approach data ]
Ephemeris | Orbit Diagram | Orbital Elements | Mission Design | Physical Parameters | Discovery Circumstances | Close-Approach Data ]
ABOUT SSD CREDITS/AWARDS PRIVACY/COPYRIGHT GLOSSARY LINKS
FirstGov 2021-Jun-13 12:49 UT
(server date/time)  
NASA Home Page
Site Manager:   Ryan S. Park
Webmaster  Alan B. Chamberlin